Regional Weather Roundup
Issued by NWS

Home | Current Version | Previous Version | Graphics & Text | Print | Product List | Glossary On
Versions: 1 2 3 4 5 6 7 8 9 10 11 12 13 14 15 16 17 18 19 20 21 22 23 24 25 26 27 28 29 30 31 32 33 34 35 36 37 38 39 40 41 42 43 44 45 46 47 48 49 50
000
ASUS45 KTFX 192004
RWRMT
MONTANA HOURLY WEATHER ROUNDUP
NATIONAL WEATHER SERVICE GREAT FALLS MT
204 PM MDT TUE AUG 19 2014

NOTE: "FAIR" INDICATES FEW OR NO CLOUDS BELOW 12000 FEET WITH NO
SIGNIFICANT WEATHER AND/OR OBSTRUCTIONS TO VISIBILITY.

* THESE STATIONS ARE NOT UNDER NWS QUALITY CONTROL. THEY DO NOT
   REPORT WEATHER SUCH AS PRECIPITATION OR FOG.

MTZ001>007-043-192100-
WEST OF THE DIVIDE
CITY           SKY/WX    TMP DP  RH WIND       PRES   REMARKS
KALISPELL      SMOKE     81  52  37 S7        29.74F
MISSOULA       SUNNY     86  46  25 NW13G21   29.77F
BUTTE          PTSUNNY   79  43  28 NE8       29.89F
MULLAN PASS    TSTM      70  46  42 VRB7      29.94F
* ESSEX        N/A       79  46  31 E4G14      N/A
* LINCOLN      N/A       80  45  29 W6G15      N/A
* LOOKOUT PASS N/A       75  48  39 VRB2G17    N/A
* POLSON       N/A       87  53  31 SE3        N/A
* RONAN APT    PTCLDY    84  50  31 S6         N/A
* SEELEY LAKE  N/A       77  46  33 SW4G10     N/A
* THOMP F APT  PTCLDY    74  39  28 S12G19     N/A
* YAAK HILL    N/A       83  50  32 SW2        N/A
$$

MTZ008-052>055-192100-
SOUTHWEST MONTANA
CITY           SKY/WX    TMP DP  RH WIND       PRES   REMARKS
BOZEMAN        PTCLDY    84  39  20 VRB6      29.81F
DILLON         PTSUNNY   82  37  20 SW6       29.85F
W YELLOWSTONE  CLOUDY    72  39  30 SW18G32   29.99F
* THREE FORKS  PTCLDY    84  48  29 N/A        N/A
* BOULDER HILL N/A       77  41  28 E3G9       N/A
* MONIDA PASS  N/A       66  41  40 NE10       N/A
* RAYNOLDS PAS N/A       76  53  45 SE15G23    N/A
* WHITEHALL    N/A       84  44  25 SE5G12     N/A
* WISE RIVER   N/A       79  48  34 NW4G16     N/A
$$

MTZ009>010-012-014-046-048-049-054-192100-
EAST SLOPES AND CENTRAL MONTANA
CITY           SKY/WX    TMP DP  RH WIND       PRES   REMARKS
CUT BANK       LGT RAIN  75  54  48 N6        29.75S
GREAT FALLS    PTCLDY    86  37  17 W9G17     29.75F
HELENA         PTCLDY    88  39  18 W13G21    29.78F
MALMSTROM AFB  PTCLDY    82  39  22 W9        29.76F
* CONRAD       PTSUNNY   84  45  26 W13G18     N/A
* DEARBORN     N/A       85  40  20 S17G26     N/A
* EAST GLACIER N/A       74  45  36 W9G20      N/A
* MONARCH      N/A       75  33  22 W12G22     N/A
* PENDROY      N/A       79  44  29 NW12G17    N/A
* ROGERS PASS  N/A       75  39  27 E11G22     N/A
* SAINT MARY   N/A       76  48  37 SW10G19    N/A
* SWEET GRASS  N/A       79  43  28 NW11G20    N/A
$$

MTZ011-013-016-021-035-040-045-047-050-051-192100-
NORTH CENTRAL MONTANA
CITY           SKY/WX    TMP DP  RH WIND       PRES   REMARKS
HAVRE          PTCLDY    90  45  21 W15G25    29.66F
LEWISTOWN      PTCLDY    88  41  19 NW8       29.78F
* CHESTER      N/A       82  43  25 W10G18     N/A
* DENTON       N/A       87  41  20 W15G24     N/A
* GEYSER       N/A       85  37  18 W17G24     N/A
* JUDITH GAP   N/A       85  41  21 W19G28     N/A
* LOMA         N/A       87  46  24 W9G17      N/A
$$

MTZ017>020-022>027-061-062-192100-
NORTHEAST MONTANA
CITY           SKY/WX    TMP DP  RH WIND       PRES   REMARKS
GLASGOW        SUNNY     90  52  27 SW10      29.64F
GLENDIVE       SUNNY     90  55  31 S10G17    29.71F
JORDAN         SUNNY     91  43  19 W14       29.68F
SIDNEY         SUNNY     88  59  38 S8        29.70F
WOLF POINT     SUNNY     93  50  23 S6        29.64F
* BEAVER HILL  N/A       86  58  39 SE11G18    N/A
* CIRCLE       N/A       92  54  28 SW7G13     N/A
* SACO         N/A       89  54  30 W7         N/A
$$

MTZ028>042-056>058-192100-
SOUTHCENTRAL AND SOUTHEAST MONTANA
CITY           SKY/WX    TMP DP  RH WIND       PRES   REMARKS
BAKER          SUNNY     90  50  25 SW10      29.75F
BILLINGS       PTCLDY    90  43  19 SW9       29.76F
LIVINGSTON     PTCLDY    90  34  14 W12G23    29.80F
MILES CITY     SUNNY     91  45  20 VRB5      29.70F
* LAUREL APT   PTSUNNY   90  43  19 S9         N/A
* ROUNDUP APT  PTCLDY    90  39  17 S18G25     N/A
* HYSHAM       N/A       89  41  19 NW3G12     N/A
* LAME DEER    N/A       87  37  17 SE1G8      N/A
* REED POINT   N/A       90  45  21 E7G14      N/A
* ROSCOE HILL  N/A       83  37  19 NE11       N/A
$$

REGIONAL REPORTS...DAKOTAS
CITY           SKY/WX    TMP DP  RH WIND       PRES   REMARKS
WILLISTON      SUNNY     90  52  27 SE10      29.70F
DICKINSON      SUNNY     84  57  40 S10       29.75F HI  83
CROSBY         SUNNY     84  55  37 SE8       29.71F
TIOGA          SUNNY     84  54  36 S8        29.76S
WATFORD CITY   SUNNY     86  55  35 S12G17    29.70F
BISMARCK       PTSUNNY   86  63  46 VRB3      29.76S HI  87
GRAND FORKS    PTCLDY    82  63  53 VRB3      29.73F HI  83
FARGO          PTCLDY    81  64  56 N5        29.75S HI  83
BUFFALO SD     SUNNY     90  52  27 S13       29.72S
RAPID CITY     PTCLDY    79  63  58 SE3       29.81F
$$

REGIONAL REPORTS...WYOMING/IDAHO/WASHINGTON
CITY           SKY/WX    TMP DP  RH WIND       PRES   REMARKS
GILLETTE       PTCLDY    91  39  16 VRB6      29.83F
SHERIDAN       PTCLDY    91  32  12 CALM      29.79F
CODY           PTSUNNY   79  48  34 CALM      29.87S
YELLOWSTONE LA CLOUDY    70  36  29 SW9       30.12F
SALMON         PTSUNNY   75  48  39 N5        29.80S
MULLAN PASS    TSTM      70  46  42 VRB7      29.94S
SAND POINT     PTSUNNY   81  55  41 S5        29.74F HI  81
SPOKANE        PTSUNNY   82  48  31 VRB3      29.75F
$$

REGIONAL REPORTS...ALBERTA
CITY           SKY/WX    TMP DP  RH WIND       PRES   REMARKS
EDMONTON       LGT RAIN  66  55  68 W9        29.72S

$$



USA.gov is the U.S. government's official web portal to all federal, state and local government web resources and services.